Location: Menands
(42.6920°N, 73.7246°W)
Time: 13:22:58
(UTC+00:00)

Cosmos 1536 Rocket - Pass Details

Date: 18 February 2026
Orbit: 600 x 624 km, 82.5° (Epoch: 11 March)

Event Time Altitude Azimuth Distance (km) Brightness Sun altitude
Rises 23:27:12 0° 158° (SSE) 2,852 6.8 -11.0°
Reaches altitude 10° 23:29:39 10° 146° (SE) 1,958 5.8 -11.5°
Maximum altitude 23:33:17 27° 89° (E) 1,194 4.4 -12.1°
Drops below altitude 10° 23:36:58 10° 32° (NNE) 1,985 5.8 -12.8°
Sets 23:39:27 0° 20° (NNE) 2,900 6.8 -13.3°
